Regional Weather Roundup
Issued by NWS Green Bay, WI

Home | Current Version | Previous Version | Text Only | Print | Product List | Glossary On
Versions: 1 2 3 4 5 6 7 8 9 10 11 12 13 14 15 16 17 18 19 20 21 22 23 24 25 26 27 28 29 30 31 32 33 34 35 36 37 38 39 40 41 42 43 44 45 46 47 48 49 50
000
ASUS43 KGRB 221311
RWRGRB

NORTH-CENTRAL AND NORTHEAST WISCONSIN REGIONAL WEATHER ROUNDUP
NATIONAL WEATHER SERVICE GREEN BAY WI
800 AM CDT TUE AUG 22 2017

WIZ005-009-010>012-018-019-221400-
NORTH CENTRAL WISCONSIN

CITY           SKY/WX    TMP DP  RH WIND       PRES   REMARKS
IRONWOOD       CLOUDY    57  55  93 W12       29.88R
MANITOWISH WTR CLOUDY    55  55 100 W8        29.88R
ARBOR VITAE    MOSUNNY   57  55  92 NW10      29.87R
EAGLE RIVER    CLOUDY    57  54  90 NW10      29.86R
LAND O LAKES   PTSUNNY   56  53  90 NW7G17    29.86R
RHINELANDER    PTSUNNY   58  54  86 NW7       29.87R
PHILLIPS       CLOUDY    56  55  96 NW5       29.90R
ANTIGO         CLOUDY    58  55  88 NW8       29.86R
TOMAHAWK         N/A     58  53  83 W9        29.89R
MERRILL        MOSUNNY   61  55  82 N10       29.88R
$$

WIZ013-073-221400-
NORTHEAST WISCONSIN

CITY           SKY/WX    TMP DP  RH WIND       PRES   REMARKS
IRON MOUNTAIN  MOSUNNY   61  53  75 NW15      29.78R
MARINETTE      CLOUDY    64  56  75 N12G17    29.78R
OCONTO         CLOUDY    65  57  75 N8G16     29.78R
$$

WIZ017-030-035>037-045-221400-
CENTRAL WISCONSIN

CITY           SKY/WX    TMP DP  RH WIND       PRES   REMARKS
MEDFORD        MOSUNNY   58  54  86 NW10      29.90R
WAUSAU         MOSUNNY   62  54  74 NW13G20   29.86R
MOSINEE        MOSUNNY   61  55  82 NW10G20   29.88R
MARSHFIELD     SUNNY     62  55  77 NW10G21   29.89R
WISC RAPIDS    MOSUNNY   64  57  78 NW16G23   29.89R
STEVENS POINT  PTSUNNY   61  55  78 NW13G20   29.87R
WAUPACA        PTSUNNY   70  61  73 NW16G23   29.83R
SHAWANO        MOSUNNY   67  56  68 NW10G21   29.82R
CLINTONVILLE   PTSUNNY   64  54  68 NW14G21   29.82R
WAUTOMA        CLOUDY    67  61  81 NW15      29.85R
$$

WIZ038-039-048-051-221400-
FOX VALLEY

CITY           SKY/WX    TMP DP  RH WIND       PRES   REMARKS
NWS GREEN BAY  MOSUNNY   69  66  90 W13       29.78R
APPLETON       PTSUNNY   66  63  88 W13G18    29.80R
OSHKOSH        MOSUNNY   68  63  84 W12       29.81R
FOND DU LAC    PTSUNNY   68  61  78 W10       29.82R
$$

WIZ022-050-052-221400-
EAST CENTRAL WISCONSIN

CITY           SKY/WX    TMP DP  RH WIND       PRES   REMARKS
EPHRAIM        CLOUDY    64  56  75 NW15G23   29.75R
WASHINGTON ISL CLOUDY    63  57  80 NW17G24   29.74R
STURGEON BAY   CLOUDY    66  60  81 NW18      29.77R
MANITOWOC        N/A    N/A N/A N/A MISG        N/A
SHEBOYGAN      CLOUDY    68  65  90 W14G21    29.80R
$$

LMZ563-521-522-541>543-221400-
LAKESHORE

STATION/POSITION TIME  TEMP    WIND        PRES    VSBY  WAVE
                       AIR SEA DIR/SP/G                  HT/PER
                 (UTC) (F)     (DEG/KT/KT) (MB)    (MI)  (FT/S)
SHEBOYGAN LKSHOR 1300   68     260/ 17/ 19 1008.2R
KEWAUNEE LKSHORE 1248   68     270/ 11/ 19 1007.0R
NORTHPORT PIER   1240   66     320/ 25/ 30 1006.8R
N MID LAKE BUOY  1250   63 68  320/ 27/ 31 1005.7R         3/ 4
S GREEN BAY BUOY 1300   69 71  300/ 17/ 21 1008.2
SISTER BAY LKSHO 1218   68     310/ 21/ 23   N/A
MENOMINEE LKSHOR 1248   65     310/ 15/ 21 1007.8R
$$



USA.gov is the U.S. government's official web portal to all federal, state and local government web resources and services.